Persoonlijke zone
Imprimable
La Roche en Ardenne, 07/06/2014, BEL - Les Boucles Ardennaises
Rapportenlijst > Semi Marathon - Resultaat
Zoek: Bladzijde: [1]
64 Inputs
 
Klachten worden niet meer geaccepteerd. Resultaten zijn definitief.
PlaatsNrNaamLeef.IOCLigaClubWerkelijkeTijdTkmGem.ScrGemeente
1.1104FPAESBRUGGE Katrien47BEL1:55:321:55:485:31 10.8838MELLETéléchargez votre diplome!
2.1019FBUYSSE Katrien40BELSPIRIDON AALST1:59:071:59:115:41 10.5749AALSTTéléchargez votre diplome!
3.1102FOIRSCHOT, VAN Henny51NLDAV MARVEL2:06:132:06:166:01 9.9874BOXTELTéléchargez votre diplome!
4.1301FVAN CASTER Sandrine Yvonne40BEL2:06:182:06:446:03 9.9476LASNETéléchargez votre diplome!
5.1221FMULDER Hilda45NLD2:08:372:08:506:09 9.7889Téléchargez votre diplome!
6.1096FMORNOUT Yvonne45NLDMARVEL2:08:422:08:586:09 9.7790GEMONDETéléchargez votre diplome!
7.1110FPIRET Nathalie47FRACHARLEVILLE MEZ ATHLÉTISM2:13:172:13:306:22 9.44111GIVONNETéléchargez votre diplome!
8.1103FOONINCX Ingrid46NLDATTILA2:13:172:13:316:22 9.44113TILBURGTéléchargez votre diplome!
9.1174FWITT Anneke48NLD2:14:022:14:236:24 9.38118HOOFDDORPTéléchargez votre diplome!
10.1048FFRANCIS Els43BEL2:14:302:14:496:26 9.35121STOKROOIETéléchargez votre diplome!
11.1256FSUETENS Christel45BEL2:16:312:17:076:32 9.19131KONINGSHOOIKTTéléchargez votre diplome!
12.1235FHEYLEN Susy46BEL2:19:572:20:246:42 8.98146OLENTéléchargez votre diplome!
13.1312FBYRGERING Elly57NLD2:19:582:20:446:43 8.95149Téléchargez votre diplome!
14.1112FPOINSOT Aurelie46FRA2:07:102:21:296:45 8.91152BRUXELLESTéléchargez votre diplome!
15.1105FPAQUET Stephanie41BELJCPMJ LEGLISE2:21:172:21:486:46 8.89154LES FOSSESTéléchargez votre diplome!
16.1138FVAESEN Conny53BELRUNNING LADIES2:21:392:21:576:46 8.88156HASSELTTéléchargez votre diplome!
17.1123FSCHOUTEN Netty45NLDLOOPGROEP ROSMALEN2:21:582:22:266:47 8.85157DEN BOSCHTéléchargez votre diplome!
18.1307FVAN DER KUN Eugenie50NLD2:23:042:24:026:52 8.75163Téléchargez votre diplome!
19.1149FVAN HEERTUM Conny43NLDLOOPGROEPROSMALEN2:23:412:24:086:52 8.74164BERLICUMTéléchargez votre diplome!
20.1163FVERCAUTEREN Lieve48BEL2:24:152:24:156:53 8.74166BEVERENTéléchargez votre diplome!
21.1025FCOLLIN Anne42BELFDC RUNNING2:26:042:26:126:58 8.62172BLEIDTéléchargez votre diplome!
22.1033FDE FIELLIETTAZ Pauline42NLDMARVEL2:26:382:27:017:01 8.57177BOXTELTéléchargez votre diplome!
23.1297FANNET Josette59BELSANDOZ2:26:302:27:037:01 8.57179LEGLISETéléchargez votre diplome!
24.1293FPERRIN Michele54FRA2:28:242:28:397:05 8.48180SEDANTéléchargez votre diplome!
25.1083FKYLE Sarah44USA2:31:092:31:287:13 8.32187ROUVEROYTéléchargez votre diplome!
26.1010FBATHORY Agnes54HUN2:31:232:31:537:14 8.30190BERELDANGETéléchargez votre diplome!
27.1077FKERCKHOVE Dany64BEL2:31:192:32:107:15 8.28193DE HAANTéléchargez votre diplome!
28.1042FDROPSY Bernadette46BEL2:33:022:33:347:19 8.21196HOTTONTéléchargez votre diplome!
29.1054FGELADI Nathalie43BEL2:33:172:34:097:21 8.17200RAMILLIESTéléchargez votre diplome!
30.1064FHAAGER Ingrid40BEL2:35:022:35:097:24 8.12203WITTIMONTTéléchargez votre diplome!
31.1184FVILAIN Christiane69BELSPTW WAVRE2:36:192:36:447:28 8.04210GREZ-DOICEAUTéléchargez votre diplome!
32.1206FVAN LIEMPD Risja49NLD2:36:202:36:507:29 8.03211Téléchargez votre diplome!
33.1269FDE BRUYN Hilde57BEL2:36:542:37:087:29 8.02212SINT-KATELIJNE-WAVERTéléchargez votre diplome!
34.1208FMEIJS Francien60NLD2:37:182:37:417:31 7.99214Téléchargez votre diplome!
35.1056FGÉRARD Isabelle43BELJCPMF LÉGLISE2:38:052:38:377:34 7.94216THIBESSARTTéléchargez votre diplome!
36.1210FSNEL Hannele52NLD2:38:272:39:307:36 7.90219Téléchargez votre diplome!
37.1230FDE GRAAFF Angeline55NLD2:38:272:39:307:36 7.90220Téléchargez votre diplome!
38.1059FGILIS Vera61BELJCPMF LA ROCHE2:39:362:39:557:37 7.88221LA ROCHE EN ARDENNETéléchargez votre diplome!
39.1013FBERTRAM Maria68DEULT ALSDORF -OST2:40:302:41:047:41 7.82224BAESWEILERTéléchargez votre diplome!
40.1165FVERHAGEN-MANNAERTS Mirjam52NLD2:40:512:41:247:42 7.81227BESTTéléchargez votre diplome!
41.1121FSANTER Raymonde55BEL2:41:262:41:457:43 7.79229AYETéléchargez votre diplome!
42.1117FROGGEN Christiane61BEL2:41:312:41:517:43 7.79230HASSELTTéléchargez votre diplome!
43.1084FLAMBERT Annick49BEL2:42:052:42:517:46 7.74231LA ROCHE EN ARDENNETéléchargez votre diplome!
44.1255FBOOM Annet56NLD2:42:222:42:537:46 7.74232Téléchargez votre diplome!
45.1300FBROEKHUIJSEN Annemarie53NLDGVAC2:42:222:42:537:46 7.74233VELDHOVENTéléchargez votre diplome!
46.1024FCOLINET Valérie41BELJCPMF LÉGLISE2:44:412:45:137:53 7.63235LEGLISETéléchargez votre diplome!
47.1267FMEUS Christiane62BELASAP HR GROUP2:45:332:45:527:54 7.60238GENKTéléchargez votre diplome!
48.1203FVAN DER VOORT Rianne49NLD2:45:262:45:577:55 7.59239Téléchargez votre diplome!
49.1201FVAN BEEK Marion51NLD2:45:272:45:577:55 7.59240Téléchargez votre diplome!
50.1276FBAVAY Jenny55BELF.R.T.BINCHE2:45:332:46:077:55 7.59241WAUDREZTéléchargez votre diplome!
51.1287FFRANCOIS Veronique53BELFRT BINCHE2:45:332:46:087:55 7.58242BINCHETéléchargez votre diplome!
52.1155FVAN SON Peggy49NLDAV MARVEL2:46:412:46:587:58 7.55244BOXTELTéléchargez votre diplome!
53.1290FLINDEBOOM Marjon53NLD2:51:022:51:498:11 7.33248CASTRICUMTéléchargez votre diplome!
54.1211FTEEUWEN Willeke53NLD2:53:222:54:288:19 7.22251Téléchargez votre diplome!
55.1116FRATZ Anita55BEL2:59:223:00:088:35 7.00259LA ROCHE EN ARDENNETéléchargez votre diplome!
56.1153FVANNESTE Dorinne48BEL3:00:333:00:428:37 6.97261WEVELGEMTéléchargez votre diplome!
57.1160FVEKEMANS Renilde59BELRUNNING LADIES3:00:263:00:478:37 6.97262HASSELTTéléchargez votre diplome!
58.1263FBEYS Marleen56BEL3:00:283:00:478:37 6.97263Téléchargez votre diplome!
59.1227FVAN DER WERVE Josephine51NLD3:00:273:01:338:39 6.94264Téléchargez votre diplome!
60.1228FJANSSENS-BRUNKKEMPER Els51NLD3:00:293:01:348:39 6.94265Téléchargez votre diplome!
61.1248FDE CUYPER Christel50BELFUNRUNNERS3:02:063:02:228:42 6.91266HERZELETéléchargez votre diplome!
62.1073FHORUCZI Katalin46HUN3:03:163:03:458:45 6.86267LUXEMBOURGTéléchargez votre diplome!
63.1164FVERHAAR Marjan54NLD3:10:163:11:029:06 6.60272WAGENINGENTéléchargez votre diplome!
DSQ1134FTRAA Maaike40NLD2:10:182:11:17OSS
DNF: abandon; DSQ: disqualifié; Vitesse en km/h
Bladzijde: [1]